カタログに戻る

TIROS N

運用中気象SSO
NORAD 11060·PAYLOAD·🇺🇸 United States

打ち上げ Oct 13, 1978 から Vandenberg Space Force Base

Loading…

次のパス (今後24時間)

TLE

最新Source: Space-Track

元期: Sep 14, 2026, 12:33 UTC

1 11060U 78096A   26257.52323824  .00000066  00000-0  51290-4 0  9992
2 11060  98.4523 274.5253 0010107 350.4578   9.6405 14.19396016691426

AllMySatでTIROS Nをリアルタイム追跡

Download on the App Store